Weather History for Sedona, AZ

Change the Weather History Date:

Sunday, May 5, 2013

  Actual Average Record
Temperature  
Mean Temperature 68 °F -  
Max Temperature 77 °F 77 °F 84 °F (2011)
Min Temperature 59 °F 45 °F 59 °F (2012)
Cooling Degree Days 3    
Growing Degree Days 18 (Base 50)    
Moisture  
Dew Point 23 °F    
Average Humidity 19    
Maximum Humidity 45    
Minimum Humidity 14    
Precipitation  
Precipitation 0.00 in - - ()
Sea Level Pressure  
Sea Level Pressure 29.97 in    
Wind  
Wind Speed 11 mph (South)    
Max Wind Speed 25 mph    
Max Gust Speed 36 mph    
Visibility 10 miles    
Events Rain    
Averages and records for this station are not official NWS values.
T = Trace of Precipitation, MM = Missing Value Source: NWS Daily Summary

Daily Weather History Graph

Daily Weather History Graph

Search for Another Location

Airport:

Trip Planner

Search our weather history database for the weather conditions in past years. The results will help you decide how hot, cold, wet, or windy it might be!

Date:

Astronomy

May. 05, 2013 Rise Set
Actual Time 5:32 AM MST 7:15 PM MST
Civil Twilight 5:04 AM MST 7:43 PM MST
Nautical Twilight 4:32 AM MST 8:16 PM MST
Astronomical Twilight 3:57 AM MST 8:51 PM MST
Moon 2:54 AM MST (5/5) 3:27 PM MST (5/5)
Length of Visible Light 14h 38m
Length of Day
13h 43m
Waning Crescent, 17% of the Moon is Illuminated
May 5
Waning Crescent
May 9
New
May 17
First Quarter
May 24
Full
May 31
Last Quarter

Hourly Weather History & Observations

Time (MST) Temp. Dew Point Humidity Pressure Visibility Wind Dir Wind Speed Gust Speed Precip Events Conditions
12:15 AM 64.4 °F 17.6 °F 16% 29.92 in 10.0 mi South 5.8 mph - N/A   Clear
12:35 AM 64.4 °F 17.6 °F 16% 29.92 in 10.0 mi SSE 6.9 mph - N/A   Clear
12:55 AM 64.4 °F 17.6 °F 16% 29.92 in 10.0 mi South 9.2 mph - N/A   Clear
1:15 AM 64.4 °F 17.6 °F 16% 29.91 in 10.0 mi South 13.8 mph 23.0 mph N/A   Clear
1:35 AM 64.4 °F 15.8 °F 15% 29.92 in 10.0 mi South 15.0 mph 21.9 mph N/A   Clear
1:55 AM 62.6 °F 14.0 °F 15% 29.92 in 10.0 mi South 10.4 mph 20.7 mph N/A   Clear
2:15 AM 62.6 °F 17.6 °F 18% 29.93 in 10.0 mi South 19.6 mph 27.6 mph N/A   Clear
2:35 AM 62.6 °F 19.4 °F 19% 29.93 in 10.0 mi South 13.8 mph 20.7 mph N/A   Clear
2:55 AM 62.6 °F 19.4 °F 19% 29.94 in 10.0 mi South 16.1 mph 19.6 mph N/A   Clear
3:15 AM 62.6 °F 19.4 °F 19% 29.94 in 10.0 mi South 11.5 mph - N/A   Clear
3:55 AM 60.8 °F 21.2 °F 22% 29.94 in 10.0 mi South 5.8 mph - N/A   Clear
4:15 AM 60.8 °F 21.2 °F 22% 29.95 in 10.0 mi South 6.9 mph - N/A   Clear
4:35 AM 60.8 °F 21.2 °F 22% 29.95 in 10.0 mi SSW 8.1 mph 16.1 mph N/A   Clear
4:55 AM 60.8 °F 21.2 °F 22% 29.95 in 10.0 mi South 8.1 mph - N/A   Clear
5:15 AM 59.0 °F 21.2 °F 23% 29.96 in 10.0 mi South 9.2 mph - N/A   Clear
5:35 AM 59.0 °F 21.2 °F 23% 29.97 in 10.0 mi South 9.2 mph - N/A   Clear
5:55 AM 59.0 °F 19.4 °F 22% 29.97 in 10.0 mi SSE 10.4 mph 17.3 mph N/A   Clear
6:15 AM 60.8 °F 21.2 °F 22% 29.98 in 10.0 mi SSE 10.4 mph - N/A   Clear
6:35 AM 60.8 °F 23.0 °F 23% 29.99 in 10.0 mi SE 11.5 mph - N/A   Clear
6:55 AM 62.6 °F 23.0 °F 22% 29.99 in 10.0 mi SSE 9.2 mph - N/A   Clear
7:15 AM 62.6 °F 23.0 °F 22% 30.00 in 10.0 mi SSE 10.4 mph 16.1 mph N/A   Clear
7:35 AM 64.4 °F 23.0 °F 21% 30.00 in 10.0 mi SSE 8.1 mph 16.1 mph N/A   Clear
7:55 AM 66.2 °F 23.0 °F 19% 30.00 in 10.0 mi SSE 15.0 mph - N/A   Clear
8:15 AM 68.0 °F 24.8 °F 20% 30.01 in 10.0 mi SSW 11.5 mph 19.6 mph N/A   Clear
8:35 AM 68.0 °F 26.6 °F 21% 30.00 in 10.0 mi SSE 15.0 mph 21.9 mph N/A   Clear
8:55 AM 69.8 °F 26.6 °F 20% 30.02 in 10.0 mi South 17.3 mph 24.2 mph N/A   Clear
9:15 AM 69.8 °F 24.8 °F 18% 30.01 in 10.0 mi SSE 19.6 mph 24.2 mph N/A   Clear
9:35 AM 69.8 °F 28.4 °F 21% 30.01 in 10.0 mi SSE 25.3 mph 31.1 mph N/A   Clear
9:55 AM 69.8 °F 26.6 °F 20% 30.02 in 10.0 mi South 16.1 mph 26.5 mph N/A   Clear
10:15 AM 71.6 °F 26.6 °F 19% 30.02 in 10.0 mi SSE 18.4 mph 25.3 mph N/A   Clear
10:35 AM 68.0 °F 24.8 °F 20% 30.03 in 10.0 mi South 13.8 mph 20.7 mph N/A   Clear
10:55 AM 66.2 °F 24.8 °F 21% 30.03 in 10.0 mi South 9.2 mph - N/A   Clear
11:15 AM 68.0 °F 24.8 °F 20% 30.03 in 10.0 mi SW 6.9 mph - N/A   Mostly Cloudy
11:35 AM 71.6 °F 26.6 °F 19% 30.02 in 10.0 mi South 6.9 mph 16.1 mph N/A   Mostly Cloudy
11:55 AM 69.8 °F 26.6 °F 20% 30.02 in 10.0 mi South 5.8 mph - N/A   Scattered Clouds
12:15 PM 73.4 °F 26.6 °F 18% 30.01 in 10.0 mi SSE 9.2 mph 16.1 mph N/A   Clear
12:35 PM 75.2 °F 26.6 °F 17% 29.99 in 10.0 mi South 17.3 mph 24.2 mph N/A   Clear
12:55 PM 73.4 °F 26.6 °F 18% 30.00 in 10.0 mi SSW 11.5 mph 26.5 mph N/A   Clear
1:15 PM 77.0 °F 26.6 °F 16% 29.98 in 10.0 mi SSE 21.9 mph 29.9 mph N/A   Clear
1:35 PM 77.0 °F 24.8 °F 14% 29.97 in 10.0 mi SSE 21.9 mph 35.7 mph N/A   Clear
1:55 PM 73.4 °F 26.6 °F 18% 29.97 in 10.0 mi South 17.3 mph 26.5 mph N/A   Clear
2:15 PM 77.0 °F 26.6 °F 16% 29.97 in 10.0 mi SSE 20.7 mph 34.5 mph N/A   Clear
2:35 PM 73.4 °F 26.6 °F 18% 29.97 in 10.0 mi South 13.8 mph 20.7 mph N/A   Clear
2:55 PM 71.6 °F 26.6 °F 19% 29.96 in 10.0 mi South 11.5 mph 28.8 mph N/A   Clear
3:15 PM 71.6 °F 24.8 °F 17% 29.95 in 10.0 mi SSE 20.7 mph 25.3 mph N/A   Clear
3:35 PM 77.0 °F 24.8 °F 14% 29.95 in 10.0 mi South 10.4 mph 25.3 mph N/A   Clear
3:55 PM 75.2 °F 23.0 °F 14% 29.95 in 10.0 mi SSW 8.1 mph 19.6 mph N/A   Clear
4:15 PM 73.4 °F 21.2 °F 14% 29.95 in 10.0 mi SSW 12.7 mph 24.2 mph N/A   Clear
4:35 PM 71.6 °F 23.0 °F 16% 29.95 in 10.0 mi SW 13.8 mph 24.2 mph N/A   Clear
4:55 PM 69.8 °F 23.0 °F 17% 29.95 in 10.0 mi SW 12.7 mph 20.7 mph N/A   Clear
5:15 PM 69.8 °F 21.2 °F 16% 29.95 in 10.0 mi SW 15.0 mph 21.9 mph N/A   Scattered Clouds
5:35 PM 69.8 °F 21.2 °F 16% 29.95 in 10.0 mi WSW 11.5 mph 21.9 mph N/A   Clear
5:55 PM 69.8 °F 21.2 °F 16% 29.94 in 10.0 mi SW 5.8 mph - N/A   Clear
6:15 PM 68.0 °F 17.6 °F 15% 29.94 in 10.0 mi WSW 10.4 mph - N/A   Scattered Clouds
6:35 PM 68.0 °F 17.6 °F 15% 29.94 in 10.0 mi WSW 8.1 mph - N/A   Clear
6:55 PM 68.0 °F 17.6 °F 15% 29.94 in 10.0 mi WSW 8.1 mph - N/A   Scattered Clouds
7:15 PM 68.0 °F 17.6 °F 15% 29.94 in 10.0 mi SW 3.5 mph - N/A   Mostly Cloudy
7:35 PM 66.2 °F 17.6 °F 15% 29.94 in 10.0 mi Calm Calm - N/A   Scattered Clouds
7:55 PM 66.2 °F 19.4 °F 17% 29.94 in 10.0 mi Calm Calm - N/A   Clear
8:15 PM 64.4 °F 17.6 °F 16% 29.94 in 10.0 mi Calm Calm - N/A   Clear
8:35 PM 64.4 °F 19.4 °F 18% 29.94 in 10.0 mi SSE 3.5 mph - N/A   Clear
8:55 PM 64.4 °F 19.4 °F 18% 29.95 in 10.0 mi Calm Calm - N/A   Clear
9:15 PM 64.4 °F 19.4 °F 18% 29.95 in 10.0 mi Calm Calm - N/A   Clear
9:35 PM 64.4 °F 21.2 °F 19% 29.95 in 10.0 mi SW 3.5 mph - N/A   Scattered Clouds
9:55 PM 64.4 °F 21.2 °F 19% 29.95 in 10.0 mi SW 4.6 mph - N/A   Mostly Cloudy
10:15 PM 62.6 °F 21.2 °F 20% 29.95 in 10.0 mi SW 3.5 mph - N/A   Mostly Cloudy
10:35 PM 62.6 °F 21.2 °F 20% 29.96 in 10.0 mi SSW 3.5 mph - N/A   Mostly Cloudy
10:55 PM 62.6 °F 21.2 °F 20% 29.97 in 10.0 mi South 5.8 mph - N/A   Overcast
11:15 PM 62.6 °F 24.8 °F 24% 29.98 in 10.0 mi South 16.1 mph 23.0 mph N/A   Overcast
11:35 PM 59.0 °F 35.6 °F 42% 29.98 in 10.0 mi ESE 12.7 mph 23.0 mph N/A Rain Light Rain
11:55 PM 59.0 °F 37.4 °F 45% 29.99 in 10.0 mi ESE 13.8 mph - N/A   Mostly Cloudy